Weather History for KCBG - March, 2014

Change the Weather History Date:

Thursday, March 13, 2014

  Actual Average Record
Temperature  
Mean Temperature 32 °F -  
Max Temperature 48 °F 37 °F 65 °F (1990)
Min Temperature 17 °F 17 °F -13 °F (1975)
Degree Days  
Heating Degree Days 32    
Moisture  
Dew Point 24 °F    
Average Humidity 65    
Maximum Humidity 74    
Minimum Humidity 57    
Precipitation  
Precipitation 0.00 in - - ()
Sea Level Pressure  
Sea Level Pressure 29.71 in    
Wind  
Wind Speed 6 mph (South)    
Max Wind Speed 10 mph    
Max Gust Speed 17 mph    
Visibility 10 miles    
Events      
Averages and records for this station are not official NWS values.
T = Trace of Precipitation, MM = Missing Value Source: NWS Daily Summary

Daily Weather History Graph

Daily Weather History Graph

Search for Another Location

Airport or City:

Trip Planner

Search our weather history database for the weather conditions in past years. The results will help you decide how hot, cold, wet, or windy it might be!

Date:

Astronomy

Mar. 13, 2014 Rise Set
Actual Time 7:29 AM CDT 7:16 PM CDT
Civil Twilight 6:59 AM CDT 7:45 PM CDT
Nautical Twilight 6:25 AM CDT 8:20 PM CDT
Astronomical Twilight 5:50 AM CDT 8:55 PM CDT
Moon 4:36 PM CDT (3/13) 5:43 AM CDT (3/13)
Length of Visible Light 12h 46m
Length of Day
11h 47m
Waxing Gibbous, 91% of the Moon is Illuminated
Mar 13
Waxing Gibbous
Mar 16
Full
Mar 23
Last Quarter
Mar 30
New
Apr 7
First Quarter

Hourly Weather History & Observations

Time (CDT) Temp. Windchill Dew Point Humidity Pressure Visibility Wind Dir Wind Speed Gust Speed Precip Events Conditions
12:16 AM 19.4 °F 11.5 °F 8.6 °F 63% 29.96 in 10.0 mi SSE 5.8 mph - N/A   Clear
12:35 AM 17.6 °F 12.3 °F 6.8 °F 63% 29.97 in 10.0 mi SSE 3.5 mph - N/A   Clear
12:55 AM 19.4 °F 14.3 °F 8.6 °F 63% 29.96 in 10.0 mi SE 3.5 mph - N/A   Clear
1:16 AM 19.4 °F - 8.6 °F 63% 29.96 in 10.0 mi Calm Calm - N/A   Clear
1:35 AM 19.4 °F 12.8 °F 8.6 °F 63% 29.95 in 10.0 mi SSE 4.6 mph - N/A   Scattered Clouds
1:55 AM 19.4 °F 11.5 °F 8.6 °F 63% 29.94 in 10.0 mi SSE 5.8 mph - N/A   Overcast
2:16 AM 19.4 °F 11.5 °F 10.4 °F 68% 29.94 in 10.0 mi SSE 5.8 mph - N/A   Overcast
2:35 AM 21.2 °F 13.6 °F 10.4 °F 63% 29.94 in 10.0 mi SSE 5.8 mph - N/A   Overcast
2:55 AM 21.2 °F 12.6 °F 12.2 °F 68% 29.93 in 10.0 mi SSE 6.9 mph - N/A   Overcast
3:15 AM 21.2 °F 12.6 °F 12.2 °F 68% 29.91 in 10.0 mi SSE 6.9 mph - N/A   Overcast
3:35 AM 21.2 °F 13.6 °F 12.2 °F 68% 29.90 in 10.0 mi SSE 5.8 mph - N/A   Overcast
3:56 AM 23.0 °F 17.0 °F 12.2 °F 63% 29.89 in 10.0 mi SSE 4.6 mph - N/A   Overcast
4:15 AM 23.0 °F 15.8 °F 12.2 °F 63% 29.88 in 10.0 mi SE 5.8 mph - N/A   Overcast
4:35 AM 23.0 °F 13.9 °F 12.2 °F 63% 29.87 in 10.0 mi SSE 8.1 mph - N/A   Overcast
4:56 AM 23.0 °F 15.8 °F 14.0 °F 68% 29.85 in 10.0 mi SE 5.8 mph - N/A   Overcast
5:15 AM 23.0 °F 14.7 °F 14.0 °F 68% 29.84 in 10.0 mi SSE 6.9 mph - N/A   Scattered Clouds
5:35 AM 23.0 °F 14.7 °F 14.0 °F 68% 29.84 in 10.0 mi SSE 6.9 mph - N/A   Scattered Clouds
5:56 AM 23.0 °F 15.8 °F 15.8 °F 74% 29.83 in 10.0 mi SSE 5.8 mph - N/A   Scattered Clouds
6:15 AM 23.0 °F 15.8 °F 14.0 °F 68% 29.83 in 10.0 mi SSE 5.8 mph - N/A   Clear
6:35 AM 23.0 °F 15.8 °F 14.0 °F 68% 29.82 in 10.0 mi SSE 5.8 mph - N/A   Clear
6:55 AM 23.0 °F 15.8 °F 15.8 °F 74% 29.81 in 10.0 mi SSE 5.8 mph - N/A   Clear
7:15 AM 23.0 °F 15.8 °F 15.8 °F 74% 29.81 in 10.0 mi SSE 5.8 mph - N/A   Clear
7:35 AM 23.0 °F 14.7 °F 15.8 °F 74% 29.80 in 10.0 mi SSE 6.9 mph - N/A   Clear
7:55 AM 23.0 °F 15.8 °F 15.8 °F 74% 29.80 in 10.0 mi SSE 5.8 mph - N/A   Clear
8:15 AM 23.0 °F 14.7 °F 15.8 °F 74% 29.79 in 10.0 mi SSE 6.9 mph - N/A   Clear
8:36 AM 24.8 °F 16.9 °F 15.8 °F 69% 29.78 in 10.0 mi South 6.9 mph - N/A   Clear
8:55 AM 26.6 °F 17.5 °F 17.6 °F 69% 29.78 in 10.0 mi South 9.2 mph - N/A   Clear
9:15 AM 26.6 °F 18.2 °F 19.4 °F 74% 29.78 in 10.0 mi South 8.1 mph - N/A   Clear
9:36 AM 28.4 °F 20.4 °F 19.4 °F 69% 29.77 in 10.0 mi South 8.1 mph - N/A   Clear
9:55 AM 30.2 °F 25.4 °F 21.2 °F 69% 29.76 in 10.0 mi South 4.6 mph - N/A   Clear
10:15 AM 32.0 °F 25.6 °F 23.0 °F 69% 29.75 in 10.0 mi South 6.9 mph - N/A   Clear
10:36 AM 33.8 °F 27.7 °F 24.8 °F 70% 29.75 in 10.0 mi SSW 6.9 mph - N/A   Clear
10:55 AM 35.6 °F 30.7 °F 24.8 °F 65% 29.74 in 10.0 mi SSW 5.8 mph - N/A   Clear
11:15 AM 35.6 °F 32.8 °F 26.6 °F 70% 29.74 in 10.0 mi SSW 3.5 mph - N/A   Clear
11:35 AM 37.4 °F 33.8 °F 26.6 °F 65% 29.73 in 10.0 mi SSW 4.6 mph - N/A   Clear
11:55 AM 37.4 °F 32.8 °F 26.6 °F 65% 29.73 in 10.0 mi South 5.8 mph - N/A   Clear
12:16 PM 39.2 °F 34.2 °F 28.4 °F 65% 29.71 in 10.0 mi SSE 6.9 mph - N/A   Clear
12:35 PM 41.0 °F 37.1 °F 28.4 °F 61% 29.71 in 10.0 mi South 5.8 mph - N/A   Clear
12:55 PM 42.8 °F 38.6 °F 30.2 °F 61% 29.70 in 10.0 mi South 6.9 mph - N/A   Clear
1:15 PM 42.8 °F 38.0 °F 30.2 °F 61% 29.69 in 10.0 mi South 8.1 mph - N/A   Clear
1:35 PM 44.6 °F 40.2 °F 30.2 °F 57% 29.69 in 10.0 mi SSW 8.1 mph - N/A   Clear
1:56 PM 44.6 °F 40.2 °F 30.2 °F 57% 29.68 in 10.0 mi South 8.1 mph - N/A   Clear
2:15 PM 44.6 °F 39.7 °F 30.2 °F 57% 29.67 in 10.0 mi South 9.2 mph - N/A   Clear
2:35 PM 44.6 °F 39.2 °F 32.0 °F 61% 29.66 in 10.0 mi South 10.4 mph - N/A   Clear
2:56 PM 46.4 °F 42.4 °F 32.0 °F 57% 29.65 in 10.0 mi South 8.1 mph - N/A   Clear
3:15 PM 46.4 °F 41.9 °F 32.0 °F 57% 29.64 in 10.0 mi South 9.2 mph - N/A   Clear
3:35 PM 46.4 °F 41.5 °F 33.8 °F 62% 29.63 in 10.0 mi South 10.4 mph - N/A   Clear
3:55 PM 46.4 °F 41.9 °F 33.8 °F 62% 29.62 in 10.0 mi South 9.2 mph - N/A   Clear
4:15 PM 48.2 °F - 33.8 °F 58% 29.61 in 10.0 mi South 9.2 mph - N/A   Clear
4:36 PM 48.2 °F - 33.8 °F 58% 29.60 in 10.0 mi South 10.4 mph 16.1 mph N/A   Clear
4:55 PM 48.2 °F - 33.8 °F 58% 29.59 in 10.0 mi South 9.2 mph 16.1 mph N/A   Clear
5:15 PM 48.2 °F - 33.8 °F 58% 29.58 in 10.0 mi South 10.4 mph 17.3 mph N/A   Clear
5:36 PM 48.2 °F - 33.8 °F 58% 29.58 in 10.0 mi South 10.4 mph 16.1 mph N/A   Clear
5:55 PM 48.2 °F - 33.8 °F 58% 29.57 in 10.0 mi South 10.4 mph - N/A   Clear
6:16 PM 48.2 °F - 33.8 °F 58% 29.56 in 10.0 mi South 10.4 mph - N/A   Clear
6:35 PM 48.2 °F - 33.8 °F 58% 29.56 in 10.0 mi South 8.1 mph - N/A   Clear
6:55 PM 48.2 °F - 35.6 °F 62% 29.55 in 10.0 mi South 8.1 mph - N/A   Clear
7:16 PM 46.4 °F 42.4 °F 33.8 °F 62% 29.55 in 10.0 mi South 8.1 mph - N/A   Clear
7:35 PM 46.4 °F 42.9 °F 33.8 °F 62% 29.55 in 10.0 mi South 6.9 mph - N/A   Clear
7:55 PM 46.4 °F 42.4 °F 33.8 °F 62% 29.54 in 10.0 mi South 8.1 mph - N/A   Clear
8:16 PM 46.4 °F 42.9 °F 33.8 °F 62% 29.54 in 10.0 mi South 6.9 mph - N/A   Clear
8:35 PM 44.6 °F 39.7 °F 35.6 °F 71% 29.53 in 10.0 mi South 9.2 mph - N/A   Clear
8:55 PM 44.6 °F 40.2 °F 35.6 °F 71% 29.52 in 10.0 mi South 8.1 mph - N/A   Clear
9:16 PM 46.4 °F 43.5 °F 35.6 °F 66% 29.52 in 10.0 mi South 5.8 mph - N/A   Clear
9:35 PM 44.6 °F 40.7 °F 35.6 °F 71% 29.51 in 10.0 mi South 6.9 mph - N/A   Clear
9:55 PM 44.6 °F 40.2 °F 35.6 °F 71% 29.51 in 10.0 mi South 8.1 mph - N/A   Clear
10:15 PM 44.6 °F 41.4 °F 35.6 °F 71% 29.51 in 10.0 mi South 5.8 mph - N/A   Clear
10:36 PM 42.8 °F 40.1 °F 33.8 °F 70% 29.50 in 10.0 mi South 4.6 mph - N/A   Clear
10:55 PM 42.8 °F 39.3 °F 33.8 °F 70% 29.49 in 10.0 mi South 5.8 mph - N/A   Clear
11:15 PM 42.8 °F 41.1 °F 33.8 °F 70% 29.48 in 10.0 mi South 3.5 mph - N/A   Clear
11:36 PM 42.8 °F 41.1 °F 33.8 °F 70% 29.48 in 10.0 mi South 3.5 mph - N/A   Clear
11:55 PM 42.8 °F - 33.8 °F 70% 29.47 in 10.0 mi Calm Calm - N/A   Clear